Temp_Advection
nan nan nan nan nan nan nan nan nan nan nan nan nan nan nan nan nan nan nan nan nan nan nan nan nan nan nan nan nan nan nan nan nan nan nan nan nan nan nan nan nan nan
nan -0 0 0 0 1 1 1 1 1 0 0 0 0 0 0 0 0 0 0 0 -0 0 -0 -0 0 0 0 0 0 0 0 0 0 0 0 0 0 0 0 0 nan
nan 0 0 0 1 1 1 1 1 0 0 0 0 0 0 0 0 0 0 0 -0 -0 -0 -0 -0 0 0 0 0 0 0 0 0 0 0 0 0 0 0 0 0 nan
nan 0 0 1 1 1 1 1 0 0 0 0 0 0 0 0 0 1 0 0 -0 -0 -0 -0 -0 0 0 0 0 0 0 0 0 0 0 0 0 0 0 0 0 nan
nan 1 1 1 1 1 1 0 0 0 0 -0 -0 0 0 0 1 1 0 -0 -1 -0 0 -0 0 0 0 0 0 0 0 0 0 0 0 0 0 0 0 0 0 nan
nan 1 1 1 1 1 0 0 0 0 -0 -0 -0 0 0 1 1 0 0 -1 -1 -0 -0 -0 0 0 0 0 0 0 0 1 0 0 0 0 0 0 0 0 0 nan
nan 1 1 0 0 0 0 -0 -0 -1 -0 -0 0 0 0 1 0 0 -0 -1 -0 0 -0 0 0 0 0 0 0 0 0 0 0 0 0 0 0 0 -0 -0 -0 nan
nan 1 0 -0 -0 -0 -0 -0 -1 -0 0 0 0 0 1 0 0 -0 -0 -1 -0 0 -0 0 0 0 0 1 0 0 0 0 0 -0 0 0 0 -0 -0 -0 -0 nan
nan 1 0 -0 0 -0 -1 -0 0 0 0 0 0 0 1 0 -0 -0 -1 -0 0 0 0 0 0 0 1 0 0 0 0 0 -0 0 0 0 0 0 0 0 0 nan
nan 1 1 1 0 -1 -0 0 1 0 0 0 0 0 0 0 -0 -0 -0 0 0 0 0 0 0 0 0 0 0 0 0 0 0 1 1 1 0 0 0 0 0 nan
nan 1 1 0 -0 -0 1 1 1 0 0 0 0 1 0 0 -0 -0 0 0 0 0 1 1 0 1 0 -0 0 0 0 0 1 1 1 0 0 0 0 0 0 nan
nan 1 0 -0 -0 0 1 1 0 1 0 0 1 1 0 0 -0 0 0 0 0 1 1 1 1 1 0 0 1 1 1 1 1 1 0 0 0 0 0 0 0 nan
nan 1 -0 -1 0 1 1 0 0 1 0 0 1 1 0 0 -0 -0 -0 0 0 1 1 1 1 1 0 1 1 1 1 1 1 1 0 0 0 0 0 0 0 nan
nan -0 -1 -0 1 1 1 0 1 1 0 1 1 1 0 0 -0 -0 -0 0 0 0 0 -0 -0 -1 -0 -0 0 -0 -0 0 1 1 0 0 0 0 0 0 0 nan
nan -1 -0 0 1 1 1 1 1 1 1 1 1 1 0 0 0 0 0 0 -0 -1 -2 -2 -1 -1 -1 -0 -0 -0 -0 0 0 1 1 0 0 0 0 1 0 nan
nan -0 0 1 1 1 1 1 1 1 1 1 1 0 0 0 0 0 0 -0 -1 -2 -2 -1 0 1 0 0 0 0 1 1 1 1 1 0 0 0 0 1 1 nan
nan 0 0 1 1 1 1 1 1 1 1 1 0 -0 -0 -0 -1 -1 -1 -1 -2 -1 -0 1 2 1 1 1 1 1 1 1 1 0 0 0 0 0 0 1 0 nan
nan 0 1 1 1 0 1 1 1 1 1 0 -0 -1 -0 -0 -1 -1 -1 -1 -1 1 1 2 1 1 0 1 2 1 1 1 1 0 0 0 0 0 0 0 0 nan
nan -0 1 1 0 0 1 1 1 0 -0 -1 -1 -0 0 0 0 0 -0 -1 1 1 1 1 1 0 0 2 2 1 1 1 1 0 0 0 0 0 0 0 -0 nan
nan 0 1 0 0 0 0 1 0 -0 -1 -1 -1 0 1 1 0 0 -0 0 1 1 0 0 0 0 1 2 1 0 1 1 0 0 0 0 0 0 0 0 -0 nan
nan 0 0 -0 -0 0 0 0 0 -0 -0 -0 0 1 1 0 -0 -0 0 1 1 1 0 1 0 0 1 1 0 -0 1 0 -0 -0 -0 0 0 0 -0 -0 -0 nan
nan 0 -0 0 0 0 1 0 -0 -0 -0 0 1 1 1 0 -0 0 0 1 1 1 1 1 0 0 0 0 -0 -0 0 0 -0 -0 0 0 0 -0 -1 -1 -0 nan
nan 1 1 1 1 0 0 0 0 -0 -0 1 1 1 0 0 0 0 1 1 1 1 1 1 0 0 0 0 -0 -0 0 0 -0 -0 0 0 -1 -1 -1 -0 -0 nan
nan 1 1 1 -0 -1 -0 0 -1 -1 -0 1 1 0 0 0 0 0 1 1 1 1 1 1 0 0 0 0 0 0 0 -0 -0 0 0 -0 -1 -1 -0 0 -0 nan
nan -0 -1 -2 -2 -1 0 -0 -1 -1 1 2 1 0 1 1 1 0 1 1 1 1 1 1 0 -0 -0 0 0 0 0 -0 -0 0 0 -0 -0 -0 0 0 -0 nan
nan nan nan nan nan nan nan nan nan nan nan nan nan nan nan nan nan nan nan nan nan nan nan nan nan nan nan nan nan nan nan nan nan nan nan nan nan nan nan nan nan nan
Wind_Speed
27 27 25 22 20 19 19 21 20 19 19 16 12 10 9 9 7 7 8 8 10 13 13 13 13 13 14 14 14 13 13 12 12 11 11 10 10 9 9 9 9 9
27 26 24 22 20 19 20 20 19 19 17 13 11 9 7 8 8 10 10 9 9 12 12 13 13 14 14 14 14 13 13 13 12 12 11 10 10 10 9 9 9 8
27 26 24 22 21 20 20 19 17 17 14 12 11 10 9 11 10 10 10 9 10 12 13 14 15 15 15 15 14 14 14 14 13 12 12 11 11 11 10 9 9 8
28 26 25 23 21 20 20 18 17 17 16 16 15 10 10 12 11 10 11 11 12 14 14 15 16 16 16 16 15 15 14 14 13 12 12 12 11 11 10 9 8 8
29 27 26 24 21 20 20 19 19 19 19 19 15 9 9 12 11 11 13 14 15 15 15 16 16 16 17 16 16 15 14 13 13 12 12 12 11 10 10 9 9 8
30 28 26 25 23 21 20 19 20 21 19 16 12 8 10 14 12 11 14 16 16 16 16 16 17 17 17 17 16 15 14 14 13 13 12 12 11 10 10 10 9 9
31 29 28 27 25 22 21 20 21 21 18 14 10 8 11 14 14 13 14 16 16 16 17 16 17 18 17 17 16 15 15 14 14 13 12 11 11 11 11 10 9 8
31 30 29 29 26 23 21 20 20 20 18 14 11 9 9 13 16 16 16 16 16 17 17 16 18 18 17 17 17 16 16 14 14 13 12 11 11 11 10 9 9 8
32 31 31 30 28 26 23 21 20 20 19 16 13 10 11 15 17 17 17 16 16 17 17 17 18 18 17 18 17 16 15 14 14 12 12 11 11 11 10 9 9 8
33 33 32 31 29 27 25 22 21 22 20 18 14 10 11 17 18 18 17 17 17 17 17 17 18 18 18 18 17 15 15 14 13 12 11 11 11 11 10 10 9 8
34 34 33 32 29 28 27 24 23 23 21 19 16 11 13 19 19 18 18 17 17 17 17 18 18 18 18 18 17 16 15 14 13 12 12 11 12 12 11 10 10 9
35 35 34 32 30 29 28 26 25 24 23 21 17 13 16 20 20 19 19 18 17 17 17 18 17 17 18 17 17 16 15 14 13 13 13 13 12 12 11 11 10 9
36 36 35 32 31 31 30 27 26 25 24 22 18 16 18 20 21 20 19 19 18 17 16 16 16 16 16 16 16 16 15 14 14 14 14 13 11 11 11 11 10 10
37 36 33 32 33 33 30 27 27 26 24 21 18 18 20 21 21 22 20 19 18 17 17 16 17 17 16 16 16 15 15 14 14 14 13 12 11 11 11 11 10 10
36 35 32 32 33 32 30 28 28 26 23 20 20 21 21 21 22 22 22 21 20 20 20 19 19 20 19 19 18 18 17 16 14 13 13 13 12 11 11 11 11 10
35 35 34 34 33 32 31 31 30 26 23 21 22 22 21 22 23 23 23 24 24 24 23 21 21 21 22 21 21 19 17 16 15 14 13 13 12 11 11 11 10 9
36 37 37 35 34 33 33 33 30 25 23 22 23 22 22 24 26 26 26 27 26 23 20 20 21 23 23 22 21 19 17 16 15 14 13 12 12 11 10 10 9 8
37 37 36 35 34 34 34 32 28 24 23 23 24 24 25 27 28 28 28 28 26 19 18 21 24 25 24 22 20 19 18 17 16 15 14 12 11 10 8 8 9 9
37 36 35 35 35 33 33 32 29 26 25 25 26 26 26 26 28 28 29 30 26 18 18 23 25 24 23 23 22 21 19 17 15 14 13 12 11 9 6 7 10 10
34 35 35 36 35 33 34 32 30 28 27 27 27 25 25 27 29 30 30 29 25 20 19 23 25 24 24 24 23 22 20 18 15 12 13 12 10 9 10 12 14 11
33 35 37 37 35 33 34 33 31 30 29 28 26 25 25 27 30 31 30 28 26 22 21 22 24 25 25 24 23 23 22 20 18 15 14 13 12 13 17 18 16 12
32 36 37 37 35 35 35 34 33 32 29 28 26 24 24 25 27 30 30 28 27 25 22 22 24 25 24 22 23 24 23 22 20 17 14 13 15 18 19 17 15 14
33 35 36 36 35 35 35 35 34 32 30 29 27 25 24 23 25 28 29 27 26 24 22 22 23 23 22 22 23 24 24 25 22 18 15 15 18 18 15 14 15 14
31 32 33 34 34 33 35 35 33 31 30 29 28 25 23 23 24 26 26 24 23 23 23 22 22 22 21 21 22 23 24 26 24 19 16 16 17 15 12 13 14 13
29 30 31 33 32 30 31 32 30 29 29 29 27 24 22 22 24 25 24 22 22 23 22 21 22 22 22 21 22 23 24 25 25 19 13 12 12 12 11 13 14 13
29 29 29 30 30 28 29 29 28 28 28 28 25 22 21 22 23 23 22 22 22 23 22 23 23 23 22 21 21 22 23 24 24 19 12 9 10 11 11 12 14 13
Wind_Direction
202 208 212 213 216 216 210 208 202 199 206 211 212 214 215 226 218 191 212 231 223 223 221 214 212 208 205 202 196 192 187 184 185 183 185 184 183 188 189 193 193 188
203 207 209 211 217 216 209 207 202 200 203 200 203 206 201 216 211 193 206 225 217 210 206 204 204 202 202 199 193 189 185 185 185 183 184 182 180 185 186 186 184 177
203 205 207 209 213 210 204 202 196 196 194 189 199 197 189 213 219 202 207 212 200 196 196 198 199 198 196 193 189 187 185 186 187 186 186 183 182 183 182 180 175 170
200 203 206 207 208 205 202 198 186 184 186 188 201 200 193 214 223 209 200 194 193 194 194 197 198 195 193 191 189 187 187 188 188 189 188 187 186 183 180 177 170 163
200 202 203 201 201 200 200 195 182 183 190 193 199 200 201 213 213 200 191 191 196 195 195 198 197 194 193 192 190 189 189 188 188 189 188 185 185 181 174 168 164 162
199 200 198 195 198 198 196 191 183 188 198 200 198 200 210 209 197 188 190 195 197 194 196 199 195 194 194 192 190 189 189 188 187 187 186 184 181 176 170 167 171 174
198 197 193 192 196 198 196 192 189 195 202 204 203 214 218 201 185 183 190 195 196 194 198 199 195 195 195 191 190 189 188 187 186 185 183 182 178 176 175 175 179 183
198 197 193 194 196 197 199 201 199 199 205 206 204 216 215 189 180 184 189 193 195 196 199 198 196 197 194 192 192 191 189 185 185 187 183 180 180 180 184 184 185 185
197 196 197 199 199 198 202 207 202 197 205 209 207 217 207 184 182 187 189 193 196 196 199 197 197 197 195 194 195 193 189 186 188 189 184 183 185 184 185 188 188 184
195 196 199 201 200 199 203 206 201 199 206 208 210 221 202 185 186 191 191 193 194 195 197 196 198 198 196 197 196 192 190 190 193 189 182 184 187 185 186 189 190 184
195 197 199 202 201 199 202 204 201 204 209 207 210 213 196 188 190 190 189 189 190 194 195 196 198 197 197 198 194 191 192 193 191 183 179 186 189 188 189 189 190 190
197 198 200 204 203 199 200 202 202 207 209 207 209 205 194 192 188 185 186 186 187 192 193 196 199 196 197 198 192 191 192 190 187 182 184 194 195 192 194 195 194 196
199 201 203 204 201 199 200 201 203 207 207 206 206 199 195 193 185 183 186 185 186 187 187 193 196 193 195 195 191 191 190 188 189 190 192 197 197 194 198 200 199 202
198 201 203 202 200 200 200 201 204 206 204 203 201 196 196 192 186 187 186 181 181 180 180 188 193 193 196 197 194 192 193 194 195 196 196 192 192 199 200 201 202 206
200 202 201 200 200 200 200 203 206 203 200 199 196 194 196 191 188 189 183 176 178 182 188 198 203 203 204 202 201 200 200 202 198 197 198 191 192 203 203 202 208 210
200 200 199 199 201 201 201 204 203 198 195 196 194 195 195 191 189 187 181 181 187 192 200 211 214 211 207 205 204 203 202 203 197 194 198 196 196 205 204 200 211 216
198 199 199 199 201 200 201 202 198 194 194 194 195 197 196 193 194 190 187 193 200 204 214 222 217 209 206 206 205 201 199 199 196 193 196 197 197 205 205 198 208 223
199 200 199 199 200 200 201 199 192 189 194 195 199 204 201 200 202 199 196 200 206 213 224 223 215 209 207 205 203 200 198 196 194 193 192 194 198 202 206 203 211 226
199 201 200 199 199 199 199 196 189 188 196 202 208 210 207 207 209 205 202 203 208 220 227 218 212 211 209 205 201 200 199 191 188 194 192 190 194 191 194 219 228 235
201 202 200 197 197 198 197 195 194 196 202 209 215 214 211 211 211 207 205 206 211 223 224 214 212 211 209 206 201 202 201 186 176 194 200 191 188 186 193 214 227 235
200 198 198 197 196 196 197 197 199 203 208 212 215 214 212 213 212 210 210 209 213 222 219 211 211 212 211 209 204 203 203 188 176 190 199 189 188 200 207 214 223 227
198 196 197 197 194 195 197 198 200 207 214 217 216 214 215 216 213 211 212 212 216 220 214 207 212 215 213 211 207 205 203 194 188 189 188 190 202 213 218 221 226 229
199 199 199 197 194 195 199 201 203 210 218 222 220 216 217 217 213 212 213 215 216 214 207 206 214 219 217 211 209 207 202 199 198 191 186 200 215 221 223 224 227 230
195 196 195 195 196 198 200 202 206 213 219 223 222 220 222 220 215 214 215 215 213 206 203 209 217 221 220 213 209 208 203 201 201 197 198 209 219 225 224 219 227 232
188 192 193 197 201 201 200 202 209 216 219 221 221 221 223 221 216 216 215 212 208 200 200 212 219 222 224 218 210 207 204 203 202 200 206 212 213 222 222 216 227 235
191 195 197 202 205 202 201 206 214 218 218 219 220 218 217 216 214 214 210 205 202 197 201 213 220 222 223 217 211 207 205 206 204 195 196 210 213 219 220 218 228 232
Height
1515 1517 1518 1520 1521 1523 1524 1525 1527 1529 1530 1531 1532 1533 1534 1534 1535 1536 1536 1535 1535 1536 1537 1538 1539 1540 1541 1541 1542 1543 1544 1545 1545 1546 1547 1547 1548 1549 1549 1550 1550 1551
1513 1515 1517 1518 1520 1521 1523 1524 1525 1527 1529 1530 1531 1533 1533 1534 1534 1535 1535 1534 1534 1535 1537 1538 1539 1540 1541 1541 1542 1543 1544 1544 1545 1546 1546 1547 1548 1549 1550 1550 1550 1551
1512 1514 1515 1517 1518 1519 1521 1522 1524 1526 1528 1529 1531 1532 1533 1533 1533 1534 1534 1534 1534 1535 1537 1538 1539 1540 1540 1541 1542 1543 1543 1544 1545 1545 1546 1547 1548 1549 1549 1550 1550 1551
1510 1512 1514 1515 1516 1518 1519 1521 1523 1526 1527 1528 1530 1531 1532 1532 1532 1533 1533 1533 1534 1535 1537 1538 1538 1539 1540 1541 1542 1542 1543 1544 1545 1545 1546 1547 1548 1549 1549 1550 1550 1550
1508 1510 1512 1513 1515 1517 1518 1520 1522 1524 1526 1527 1529 1530 1531 1531 1531 1532 1532 1533 1534 1535 1537 1537 1538 1539 1540 1541 1541 1542 1543 1544 1545 1545 1546 1547 1548 1549 1549 1550 1550 1551
1506 1508 1510 1512 1513 1515 1517 1519 1521 1523 1524 1526 1528 1529 1530 1530 1531 1531 1532 1532 1534 1535 1536 1537 1538 1539 1540 1541 1541 1542 1543 1544 1544 1545 1546 1547 1548 1549 1549 1550 1550 1550
1503 1505 1508 1510 1511 1513 1516 1518 1520 1521 1523 1526 1527 1528 1528 1529 1530 1531 1532 1532 1534 1535 1536 1537 1538 1539 1540 1541 1541 1542 1543 1544 1544 1545 1546 1547 1548 1548 1549 1549 1550 1550
1501 1503 1506 1508 1510 1512 1514 1516 1518 1520 1522 1524 1526 1527 1527 1528 1529 1530 1531 1532 1534 1535 1536 1537 1538 1539 1540 1541 1541 1542 1543 1544 1544 1545 1546 1547 1548 1548 1548 1549 1549 1549
1500 1502 1504 1506 1508 1510 1512 1514 1517 1519 1522 1523 1525 1526 1527 1528 1529 1530 1531 1532 1533 1534 1535 1536 1537 1539 1540 1540 1541 1542 1543 1544 1544 1545 1546 1547 1547 1548 1548 1549 1549 1549
1498 1500 1501 1503 1506 1509 1511 1513 1516 1518 1521 1522 1524 1525 1526 1527 1528 1529 1530 1532 1532 1533 1535 1536 1537 1538 1539 1540 1541 1542 1543 1543 1544 1545 1546 1547 1547 1548 1548 1548 1548 1549
1496 1498 1499 1501 1504 1507 1510 1512 1515 1517 1520 1521 1523 1524 1525 1526 1527 1528 1530 1531 1532 1533 1534 1535 1536 1537 1538 1539 1540 1541 1542 1543 1544 1545 1546 1546 1547 1547 1547 1548 1548 1548
1494 1496 1498 1500 1503 1507 1509 1511 1514 1516 1518 1520 1521 1523 1524 1524 1526 1527 1528 1530 1531 1532 1533 1534 1535 1537 1538 1539 1540 1541 1541 1542 1543 1544 1545 1546 1546 1547 1547 1548 1548 1548
1491 1493 1496 1499 1503 1505 1507 1510 1513 1515 1517 1518 1520 1521 1522 1523 1525 1526 1527 1528 1530 1531 1532 1533 1534 1536 1537 1538 1540 1540 1541 1542 1542 1543 1544 1545 1546 1546 1547 1547 1547 1548
1489 1492 1495 1498 1501 1504 1506 1509 1511 1513 1515 1517 1518 1519 1520 1522 1523 1524 1526 1527 1528 1529 1531 1532 1533 1534 1536 1538 1539 1540 1541 1542 1542 1543 1543 1545 1545 1546 1546 1546 1547 1547
1487 1490 1494 1497 1500 1502 1505 1507 1509 1512 1514 1515 1516 1517 1519 1520 1522 1523 1524 1526 1527 1527 1528 1530 1531 1533 1534 1536 1537 1538 1539 1540 1541 1543 1543 1544 1545 1545 1545 1546 1546 1546
1485 1488 1492 1495 1498 1501 1503 1505 1507 1510 1511 1513 1514 1516 1517 1519 1520 1522 1523 1524 1524 1525 1526 1527 1530 1531 1532 1534 1535 1537 1538 1539 1540 1542 1542 1543 1544 1544 1545 1545 1545 1545
1483 1486 1490 1493 1495 1499 1501 1503 1505 1508 1509 1511 1512 1514 1516 1517 1518 1519 1521 1521 1521 1523 1525 1526 1528 1530 1531 1532 1534 1536 1537 1537 1539 1541 1542 1542 1543 1544 1544 1545 1544 1544
1481 1485 1488 1491 1493 1496 1499 1501 1504 1506 1507 1509 1510 1511 1513 1514 1516 1517 1518 1519 1520 1522 1523 1525 1526 1528 1530 1532 1533 1534 1535 1536 1538 1540 1541 1542 1542 1543 1544 1544 1544 1544
1479 1483 1486 1489 1491 1494 1497 1499 1502 1504 1505 1506 1507 1508 1511 1512 1514 1515 1516 1517 1519 1520 1521 1523 1525 1527 1529 1531 1532 1533 1534 1536 1537 1539 1540 1541 1541 1542 1543 1544 1543 1543
1478 1481 1484 1486 1489 1492 1495 1497 1500 1501 1502 1503 1504 1506 1508 1510 1511 1513 1514 1516 1518 1519 1520 1522 1524 1526 1528 1529 1531 1532 1534 1535 1537 1538 1539 1540 1541 1542 1543 1543 1542 1543
1476 1478 1481 1484 1487 1490 1493 1495 1497 1498 1499 1500 1502 1504 1506 1507 1509 1511 1513 1516 1517 1518 1519 1521 1522 1525 1527 1528 1530 1532 1533 1534 1535 1536 1538 1539 1540 1540 1541 1541 1541 1542
1474 1476 1479 1482 1485 1488 1490 1493 1494 1495 1497 1498 1499 1502 1503 1505 1507 1510 1512 1514 1515 1516 1518 1519 1521 1523 1525 1527 1528 1530 1532 1533 1534 1535 1536 1538 1538 1538 1539 1539 1540 1540
1472 1474 1477 1479 1483 1486 1488 1490 1492 1493 1495 1496 1498 1501 1502 1503 1505 1507 1510 1512 1513 1515 1517 1518 1519 1521 1523 1525 1527 1528 1530 1532 1533 1534 1535 1536 1536 1536 1537 1538 1539 1539
1470 1473 1476 1478 1481 1483 1485 1487 1490 1492 1493 1494 1497 1500 1502 1503 1504 1506 1508 1510 1512 1514 1516 1517 1518 1520 1522 1524 1525 1527 1529 1530 1531 1533 1533 1534 1535 1535 1536 1537 1537 1538
1469 1472 1474 1476 1479 1481 1483 1485 1487 1490 1491 1493 1495 1498 1500 1502 1503 1504 1506 1508 1511 1514 1515 1515 1517 1519 1520 1522 1524 1526 1527 1528 1530 1532 1532 1533 1534 1534 1535 1536 1536 1536
1467 1469 1472 1475 1477 1480 1482 1484 1485 1487 1490 1492 1494 1496 1498 1500 1501 1503 1505 1508 1510 1513 1514 1514 1515 1517 1518 1520 1522 1524 1526 1527 1528 1530 1531 1533 1533 1533 1534 1534 1534 1535